Springfield, OH

2:33 PM EST on November 17, 2017 (GMT -0500)
Springfield-Beckley Municipal

Weather History for KSGH - January, 2013

Change the Weather History Date:

Sunday, January 6, 2013

  Actual Average (KFFO) Record (KFFO)
Temperature  
Mean Temperature 28 °F -  
Max Temperature 34 °F 36 °F 60 °F (1998)
Min Temperature 23 °F 21 °F -9 °F (2014)
Degree Days  
Heating Degree Days 36    
Moisture  
Dew Point 25 °F    
Average Humidity 80    
Maximum Humidity 89    
Minimum Humidity 72    
Precipitation  
Precipitation 0.00 in - - ()
Sea Level Pressure  
Sea Level Pressure 30.12 in    
Wind  
Wind Speed 12 mph (WSW)    
Max Wind Speed 25 mph    
Max Gust Speed 30 mph    
Visibility 4 miles    
Events Rain    
Averages and records for this station are not official NWS values.
T = Trace of Precipitation, MM = Missing Value Source: NWS Daily Summary

Daily Weather History Graph

Daily Weather History Graph

Search for Another Location

Airport or City:

Trip Planner

Search our weather history database for the weather conditions in past years. The results will help you decide how hot, cold, wet, or windy it might be!

Date:

Astronomy

Jan. 06, 2013 Rise Set
Actual Time 7:56 AM EST 5:26 PM EST
Civil Twilight 7:26 AM EST 5:56 PM EST
Nautical Twilight 6:53 AM EST 6:29 PM EST
Astronomical Twilight 6:20 AM EST 7:02 PM EST
Moon 2:10 AM EST (1/6) 12:52 PM EST (1/6)
Length of Visible Light 10h 29m
Length of Day
9h 29m
Waning Crescent, 33% of the Moon is Illuminated
Jan 6
Waning Crescent
Jan 11
New
Jan 18
First Quarter
Jan 26
Full
Feb 3
Last Quarter

Hourly Weather History & Observations

Time (EST) Temp. Windchill Dew Point Humidity Pressure Visibility Wind Dir Wind Speed Gust Speed Precip Events Conditions
12:56 AM 31.1 °F 24.5 °F 23.0 °F 72% 30.16 in 7.0 mi SW 6.9 mph - N/A   Overcast
1:56 AM 31.1 °F 24.5 °F 23.0 °F 72% 30.14 in 7.0 mi SSW 6.9 mph - N/A   Overcast
2:56 AM 31.1 °F 24.5 °F 24.1 °F 75% 30.12 in 7.0 mi SSW 6.9 mph - N/A   Overcast
3:56 AM 32.0 °F 23.6 °F 24.1 °F 73% 30.11 in 7.0 mi SSW 10.4 mph - N/A   Overcast
4:56 AM 32.0 °F 23.6 °F 25.2 °F 76% 30.08 in 7.0 mi SSW 10.4 mph - N/A   Overcast
5:56 AM 32.0 °F 24.2 °F 25.2 °F 76% 30.07 in 7.0 mi SW 9.2 mph - N/A   Overcast
6:56 AM 32.9 °F 24.7 °F 25.2 °F 73% 30.07 in 7.0 mi SW 10.4 mph - N/A   Overcast
7:56 AM 32.9 °F 24.7 °F 26.1 °F 76% 30.08 in 6.0 mi SW 10.4 mph - N/A   Haze
8:56 AM 32.9 °F 24.1 °F 26.1 °F 76% 30.07 in 5.0 mi SW 11.5 mph - N/A   Haze
9:56 AM 34.0 °F 24.2 °F 27.1 °F 76% 30.08 in 6.0 mi SW 15.0 mph - N/A   Haze
10:31 AM 33.8 °F 24.8 °F 26.6 °F 75% 30.05 in 5.0 mi SW 12.7 mph - N/A   Haze
10:56 AM 34.0 °F 26.0 °F 27.1 °F 76% 30.08 in 5.0 mi SW 10.4 mph - N/A   Haze
11:56 AM 34.9 °F 25.7 °F 28.0 °F 76% 30.05 in 5.0 mi SW 13.8 mph - N/A   Haze
12:56 PM 34.0 °F 23.8 °F 28.0 °F 79% 30.04 in 4.0 mi WSW 16.1 mph - N/A   Haze
1:45 PM 33.8 °F 24.8 °F 28.4 °F 81% 30.01 in 2.5 mi WSW 12.7 mph - 0.00 in   Overcast
1:56 PM 32.9 °F 23.7 °F 30.0 °F 89% 30.04 in 1.8 mi WSW 12.7 mph - 0.00 in   Overcast
2:03 PM 33.8 °F 23.9 °F 28.4 °F 81% 30.02 in 2.5 mi WSW 15.0 mph - 0.00 in   Overcast
2:10 PM 33.8 °F 25.3 °F 30.2 °F 87% 30.02 in 2.5 mi WSW 11.5 mph - 0.00 in   Overcast
2:25 PM 33.8 °F 25.3 °F 28.4 °F 81% 30.02 in 3.0 mi WSW 11.5 mph - 0.00 in   Overcast
2:38 PM 33.8 °F 25.8 °F 28.4 °F 81% 30.03 in 2.5 mi WSW 10.4 mph - 0.00 in   Overcast
2:46 PM 33.8 °F 25.3 °F 28.4 °F 81% 30.03 in 2.5 mi WSW 11.5 mph - 0.00 in   Overcast
2:56 PM 32.9 °F 21.0 °F 29.1 °F 86% 30.07 in 3.0 mi West 20.7 mph 26.5 mph 0.00 in   Overcast
2:58 PM 32.0 °F 18.6 °F 28.4 °F 87% 30.04 in 3.0 mi West 25.3 mph 29.9 mph 0.00 in   Overcast
3:27 PM 30.2 °F 17.1 °F 26.6 °F 86% 30.07 in 2.0 mi West 21.9 mph 28.8 mph 0.00 in   Overcast
3:56 PM 30.0 °F 19.1 °F 27.1 °F 89% 30.13 in 1.8 mi WNW 15.0 mph - 0.00 in Rain Light Freezing Rain
4:23 PM 28.4 °F 16.2 °F 24.8 °F 86% 30.11 in 3.0 mi West 17.3 mph 27.6 mph 0.00 in Rain Light Freezing Rain
4:34 PM 28.4 °F 15.8 °F 24.8 °F 86% 30.12 in 3.0 mi West 18.4 mph - 0.00 in Rain Light Freezing Rain
4:41 PM 28.4 °F 16.6 °F 23.0 °F 80% 30.12 in 4.0 mi West 16.1 mph - 0.00 in   Haze
4:56 PM 28.0 °F 14.6 °F 23.0 °F 81% 30.17 in 3.0 mi WNW 20.7 mph 27.6 mph 0.00 in   Haze
5:35 PM 24.8 °F 9.0 °F 19.4 °F 80% 30.16 in 4.0 mi WNW 25.3 mph 28.8 mph N/A   Haze
5:56 PM 24.1 °F 9.4 °F 18.1 °F 78% 30.22 in 5.0 mi WNW 20.7 mph 26.5 mph N/A   Haze
6:56 PM 23.0 °F 9.6 °F 18.1 °F 82% 30.25 in 4.0 mi West 16.1 mph - N/A   Haze
7:56 PM 23.0 °F 10.1 °F 18.1 °F 82% 30.28 in 4.0 mi West 15.0 mph - N/A   Haze
8:56 PM 23.0 °F 9.6 °F 19.0 °F 85% 30.30 in 4.0 mi West 16.1 mph - N/A   Overcast
9:56 PM 24.1 °F 12.5 °F 19.0 °F 81% 30.32 in 4.0 mi West 12.7 mph - N/A   Haze
10:56 PM 24.1 °F 13.7 °F 20.1 °F 85% 30.35 in 4.0 mi West 10.4 mph - N/A   Mostly Cloudy
11:56 PM 25.2 °F 15.1 °F 20.1 °F 81% 30.37 in 4.0 mi West 10.4 mph - N/A   Haze